[[{"header":{"parameterUnit":"m.s-1","parameterCategory":1,"la1":30.2991,"la2":30.254,"lo1":-89.0895,"lo2":-89.0444,"dy":0.0017,"dx":0.0017,"nx":28,"ny":28,"refTime":"2024-04-12T09:00:00:Z","depth":0,"parameterNumber":2,"parameterNumberName":"U-component_of_WINDS"},"data":[0,0,0,0,0,0,0,0,0,0,0,0,0,0,0,0,0,0,0,0,0,0,0,0,0,0,0,0,0,0,0,0,0,0,0,0,0,0,0,0,0,0,0,0,0,0,0,0,0,0,0,0,0,0,0,0,0,0,2.0938,2.0939,0,2.1048,2.105,2.1051,2.1091,2.109,2.109,2.1089,2.1207,2.121,2.1214,0,0,0,0,0,0,0,0,0,0,0,0,0,2.0768,2.0771,2.0938,2.0939,2.094,2.1048,2.105,2.1051,2.1091,2.109,2.109,2.1089,2.1206,2.121,2.1214,0,0,0,0,0,0,0,0,0,0,0,0,0,2.0857,2.0772,2.0938,2.0973,2.0977,2.1048,2.105,2.1051,2.1091,2.109,2.109,2.1089,2.1204,2.1209,2.1215,2.1259,0,0,2.1231,2.1233,0,0,0,0,0,0,0,0,2.0851,2.0863,2.0967,2.0971,2.0976,2.1055,2.1033,2.1121,2.1091,2.1048,2.1089,2.1089,2.1157,2.1166,2.1188,2.1264,2.127,2.1231,2.1234,2.1237,2.1238,0,0,0,0,0,0,0,2.0845,2.0858,2.0982,2.0968,2.0974,2.0986,2.0998,2.105,2.1105,2.1052,2.1055,2.1067,2.116,2.1183,2.1191,2.1271,2.1231,2.1236,2.1239,2.1241,2.1394,2.1395,0,0,0,0,0,0,2.0832,2.0853,2.0978,2.0985,2.0911,2.0989,2.1003,2.103,2.1104,2.1115,2.1067,2.1068,2.1175,2.1185,2.1196,2.1255,2.1237,2.1241,2.1245,2.1393,2.1394,2.1395,0,0,0,0,0,0,2.0829,2.0843,2.0974,2.092,2.0937,2.0993,2.1024,2.1033,2.1056,2.1116,2.1127,2.1081,2.1175,2.1188,2.1244,2.126,2.1244,2.1249,2.1392,2.1394,2.1395,2.1373,0,0,0,0,0,0,2.0824,2.0842,2.0857,2.092,2.094,2.1017,2.1024,2.1035,2.1065,2.1067,2.1132,2.1142,2.1175,2.1236,2.1249,2.1267,2.1253,2.1391,2.1393,2.1394,2.1372,2.1373,2.1374,0,0,0,0,0,2.0817,2.0846,2.0857,2.0872,2.096,2.1018,2.103,2.1066,2.1066,2.1083,2.1122,2.114,2.1256,2.1241,2.1256,2.1276,2.139,2.1392,2.1394,2.1372,2.1373,2.1374,0,0,0,0,0,0,2.0784,2.0855,2.0868,2.0918,2.0962,2.1025,2.1047,2.1066,2.1112,2.1112,2.1157,2.1171,2.1224,2.1256,2.1238,2.1325,2.1324,2.133,2.1302,2.1304,2.1304,2.1296,2.1257,0,0,0,0,0,2.0783,2.0822,2.0882,2.0921,2.0942,2.0991,2.1018,2.1042,2.109,2.1109,2.1152,2.1199,2.1247,2.1277,2.1324,2.1377,2.1394,2.1399,2.1399,2.14,2.1404,2.1439,2.1443,2.1402,2.1402,2.1402,0,0,2.078,2.0824,2.0846,2.0915,2.0952,2.0994,2.1006,2.1049,2.1082,2.1116,2.1171,2.1205,2.1261,2.1316,2.1343,2.1344,2.1419,2.1402,2.1402,2.1407,2.1441,2.1445,2.1448,2.1404,2.1403,2.1403,0,0,2.0797,2.0833,2.087,2.0907,2.0963,2.0996,2.1005,2.1066,2.1089,2.1145,2.1172,2.1213,2.1293,2.1333,2.1363,2.14,2.1419,2.1414,2.1418,2.1452,2.1455,2.1458,2.1474,2.1478,2.1418,2.1418,2.1418,0,2.0787,2.0849,2.0887,2.093,2.0961,2.0994,2.1034,2.1068,2.1137,2.1159,2.1159,2.1263,2.1303,2.137,2.1379,2.1402,2.1416,2.1407,2.1451,2.1455,2.1458,2.1474,2.1479,2.1417,2.1417,2.1417,2.1417,0,2.0836,2.0879,2.0903,2.0968,2.1003,2.1043,2.109,2.1121,2.1143,2.1177,2.1236,2.1286,2.1345,2.1362,2.1384,2.1434,2.1434,2.1442,2.1442,2.146,2.1476,2.1482,2.1416,2.1416,2.1416,2.1417,0,0,2.0833,2.092,2.0928,2.096,2.1026,2.1061,2.1106,2.1163,2.119,2.1237,2.1277,2.1346,2.1355,2.139,2.1418,2.1447,2.1476,2.1453,2.1455,2.1457,2.1538,2.1532,2.1538,2.1489,2.1491,2.1492,2.1534,0,2.0859,2.0938,2.0975,2.1039,2.1081,2.1115,2.1154,2.12,2.1234,2.1278,2.1316,2.1365,2.1372,2.1394,2.1424,2.1466,2.1493,2.1464,2.153,2.1532,2.1516,2.1545,2.1538,2.1576,2.154,2.1541,2.1542,0,2.09,2.0947,2.1015,2.1079,2.1098,2.1132,2.119,2.123,2.1285,2.1308,2.1348,2.1376,2.1427,2.1424,2.1498,2.1477,2.1507,2.1532,2.1535,2.1543,2.1538,2.1556,2.1588,2.1594,2.1551,2.155,2.155,0,2.0893,2.0974,2.1026,2.1052,2.1127,2.1151,2.1184,2.1238,2.1271,2.1322,2.1345,2.1401,2.1433,2.1478,2.1521,2.1514,2.1592,2.1592,2.1615,2.1614,2.163,2.1628,2.1668,2.1647,2.1647,2.1647,2.1646,0,2.0919,2.096,2.1024,2.1056,2.1104,2.1148,2.1195,2.1231,2.128,2.1322,2.1355,2.1394,2.1448,2.1495,2.153,2.1587,2.1601,2.1623,2.1632,2.1621,2.1618,2.1642,2.1641,2.1648,2.1648,2.1647,2.1647,0,2.0919,2.0964,2.1023,2.109,2.1108,2.1141,2.12,2.1234,2.1271,2.1324,2.1339,2.1397,2.1455,2.1503,2.1578,2.1602,2.1663,2.1672,2.1644,2.1649,2.167,2.1668,2.1727,2.1739,2.1708,2.1708,2.1708,0,2.0933,2.0966,2.1037,2.1067,2.1099,2.1147,2.1181,2.1228,2.1263,2.133,2.1357,2.1417,2.1467,2.1558,2.1609,2.1668,2.168,2.1697,2.1689,2.1678,2.1683,2.1681,2.1686,2.1698,2.1698,2.1698,2.1698,0,2.0954,2.0976,2.1023,2.108,2.112,2.1167,2.1215,2.1238,2.1294,2.1333,2.1391,2.143,2.1509,2.1569,2.1634,2.1671,2.1695,2.17,2.1709,2.1698,2.1682,2.1694,2.1647,2.1699,2.1699,2.1699,2.1698,2.1698,2.0963,2.0995,2.1051,2.1104,2.1145,2.119,2.1227,2.1269,2.1318,2.1384,2.141,2.1471,2.153,2.162,2.1658,2.1708,2.1711,2.1723,2.1727,2.173,2.1729,2.1673,2.172,2.172,2.172,2.172,2.1721,0,2.0987,2.1026,2.1074,2.1141,2.1184,2.1202,2.1257,2.1293,2.1346,2.1398,2.1447,2.1518,2.1577,2.1634,2.1697,2.1727,2.174,2.1743,2.1742,2.1751,2.1722,2.1709,2.1731,2.1731,2.1731,2.1731,2.1731,2.1731,2.1005,2.106,2.1089,2.1167,2.1206,2.1265,2.1296,2.1339,2.1381,2.1458,2.1507,2.1544,2.1599,2.1668,2.1725,2.174,2.1763,2.1763,2.1782,2.1754,2.1752,2.175,2.1738,2.1767,2.1767,2.1806,2.1807,2.1807]},{"header":{"parameterUnit":"m.s-1","parameterCategory":1,"la1":30.2991,"la2":30.254,"lo1":-89.0895,"lo2":-89.0444,"dy":0.0017,"dx":0.0017,"nx":28,"ny":28,"refTime":"2024-04-12T09:00:00:Z","depth":0,"parameterNumber":3,"parameterNumberName":"V-component_of_WINDS"},"data":[0,0,0,0,0,0,0,0,0,0,0,0,0,0,0,0,0,0,0,0,0,0,0,0,0,0,0,0,0,0,0,0,0,0,0,0,0,0,0,0,0,0,0,0,0,0,0,0,0,0,0,0,0,0,0,0,0,0,-2.4425,-2.4424,0,-2.4316,-2.4314,-2.4313,-2.4358,-2.436,-2.4363,-2.4366,-2.4247,-2.4242,-2.4236,0,0,0,0,0,0,0,0,0,0,0,0,0,-2.4667,-2.4662,-2.4425,-2.4424,-2.4422,-2.4316,-2.4314,-2.4313,-2.4357,-2.4361,-2.4364,-2.4367,-2.4249,-2.4243,-2.4236,0,0,0,0,0,0,0,0,0,0,0,0,0,-2.456,-2.4661,-2.4425,-2.4432,-2.4431,-2.4316,-2.4314,-2.4313,-2.4357,-2.4361,-2.4365,-2.4368,-2.4251,-2.4243,-2.4235,-2.4105,0,0,-2.4209,-2.4206,0,0,0,0,0,0,0,0,-2.4566,-2.4551,-2.4432,-2.4431,-2.4431,-2.4355,-2.4356,-2.4243,-2.4356,-2.4385,-2.4366,-2.437,-2.4279,-2.4269,-2.424,-2.4099,-2.4094,-2.4209,-2.4204,-2.42,-2.4198,0,0,0,0,0,0,0,-2.4573,-2.4556,-2.4382,-2.4431,-2.4429,-2.4438,-2.4428,-2.4335,-2.4311,-2.4383,-2.4386,-2.4372,-2.428,-2.4248,-2.4237,-2.4093,-2.4209,-2.4201,-2.4196,-2.4193,-2.3839,-2.3835,0,0,0,0,0,0,-2.4582,-2.4562,-2.4385,-2.4378,-2.4509,-2.4431,-2.4419,-2.4375,-2.4312,-2.4307,-2.4369,-2.4375,-2.426,-2.4247,-2.4233,-2.4076,-2.42,-2.4192,-2.4187,-2.3843,-2.3838,-2.3833,0,0,0,0,0,0,-2.4587,-2.4565,-2.439,-2.4471,-2.4449,-2.4423,-2.4373,-2.4371,-2.4339,-2.4302,-2.4298,-2.4341,-2.4263,-2.4245,-2.4137,-2.4072,-2.4188,-2.4181,-2.3849,-2.3842,-2.3836,-2.376,0,0,0,0,0,0,-2.4593,-2.4567,-2.4519,-2.447,-2.4445,-2.4296,-2.4369,-2.4366,-2.4325,-2.4331,-2.4275,-2.4269,-2.4264,-2.4149,-2.4128,-2.4063,-2.4174,-2.3854,-2.3846,-2.3838,-2.3768,-2.3752,-2.3738,0,0,0,0,0,-2.4602,-2.45,-2.4516,-2.4494,-2.4384,-2.4292,-2.4278,-2.4276,-2.432,-2.427,-2.4246,-2.4271,-2.4083,-2.4137,-2.4115,-2.4046,-2.3858,-2.3848,-2.3838,-2.3775,-2.3755,-2.3738,0,0,0,0,0,0,-2.454,-2.4494,-2.4511,-2.4391,-2.4345,-2.43,-2.4237,-2.4255,-2.4195,-2.4203,-2.4202,-2.4189,-2.4076,-2.4051,-2.4112,-2.3916,-2.3977,-2.3962,-2.3937,-2.3917,-2.3903,-2.391,-2.4167,0,0,0,0,0,-2.4513,-2.4445,-2.4407,-2.4305,-2.4282,-2.4263,-2.4223,-2.4226,-2.4178,-2.4159,-2.4127,-2.4078,-2.4008,-2.3962,-2.3895,-2.3766,-2.3753,-2.3707,-2.3692,-2.368,-2.3666,-2.3594,-2.3572,-2.3801,-2.3801,-2.3801,0,0,-2.4455,-2.4422,-2.4378,-2.4292,-2.4257,-2.4184,-2.4247,-2.4167,-2.4112,-2.4146,-2.4042,-2.4017,-2.3962,-2.3843,-2.3788,-2.3817,-2.36,-2.3667,-2.3658,-2.365,-2.3582,-2.356,-2.3541,-2.3794,-2.3795,-2.3797,0,0,-2.4312,-2.4281,-2.4192,-2.4156,-2.4104,-2.4093,-2.4071,-2.4023,-2.4009,-2.3905,-2.3929,-2.3863,-2.3743,-2.3702,-2.3666,-2.3509,-2.3529,-2.3488,-2.3407,-2.3337,-2.3319,-2.3303,-2.3245,-2.3224,-2.3475,-2.3474,-2.3474,0,-2.4246,-2.4139,-2.4143,-2.4062,-2.4022,-2.4053,-2.3961,-2.3926,-2.3853,-2.3824,-2.3859,-2.3709,-2.3674,-2.3544,-2.3506,-2.3477,-2.345,-2.3493,-2.3322,-2.3305,-2.329,-2.3235,-2.3213,-2.347,-2.347,-2.3471,-2.3471,0,-2.406,-2.3985,-2.392,-2.3851,-2.3804,-2.3718,-2.3707,-2.3659,-2.3667,-2.3651,-2.3544,-2.3504,-2.343,-2.34,-2.3405,-2.327,-2.329,-2.3323,-2.3384,-2.3264,-2.3211,-2.319,-2.3463,-2.3464,-2.3466,-2.3467,0,0,-2.3872,-2.3809,-2.3784,-2.3753,-2.3698,-2.3639,-2.3554,-2.3484,-2.3442,-2.3391,-2.3318,-2.3216,-2.3247,-2.3206,-2.3207,-2.3146,-2.3022,-2.3186,-2.3185,-2.3155,-2.2869,-2.2842,-2.2818,-2.3036,-2.3032,-2.3029,-2.2873,0,-2.3724,-2.3576,-2.3578,-2.344,-2.3371,-2.3399,-2.3324,-2.3281,-2.3265,-2.3202,-2.3183,-2.311,-2.3157,-2.3132,-2.3073,-2.305,-2.2964,-2.3061,-2.2965,-2.2962,-2.2975,-2.2791,-2.2763,-2.2617,-2.2852,-2.2849,-2.2846,0,-2.353,-2.3475,-2.3331,-2.3286,-2.3257,-2.319,-2.3125,-2.3066,-2.3017,-2.301,-2.2964,-2.2975,-2.2887,-2.2952,-2.2829,-2.2895,-2.2856,-2.2839,-2.2833,-2.2822,-2.2895,-2.2772,-2.2571,-2.2548,-2.2815,-2.2817,-2.282,0,-2.3405,-2.3295,-2.3195,-2.3168,-2.3113,-2.3065,-2.304,-2.2996,-2.2953,-2.2896,-2.2868,-2.2801,-2.2763,-2.271,-2.2702,-2.2751,-2.2577,-2.2643,-2.2566,-2.2566,-2.2526,-2.2528,-2.2313,-2.2505,-2.2506,-2.2506,-2.2506,0,-2.3237,-2.3147,-2.3138,-2.3075,-2.2975,-2.2978,-2.2878,-2.2857,-2.2817,-2.275,-2.2771,-2.2707,-2.2701,-2.2635,-2.2628,-2.2526,-2.2509,-2.2499,-2.2497,-2.2495,-2.2496,-2.2467,-2.2476,-2.25,-2.2501,-2.2503,-2.2504,0,-2.3079,-2.307,-2.2962,-2.292,-2.2907,-2.2835,-2.2799,-2.2738,-2.2725,-2.2639,-2.2619,-2.2597,-2.252,-2.2508,-2.2417,-2.2412,-2.2289,-2.23,-2.2306,-2.2306,-2.2229,-2.2236,-2.1986,-2.1952,-2.2169,-2.2167,-2.2165,0,-2.2971,-2.2903,-2.2855,-2.2813,-2.2785,-2.2716,-2.2674,-2.2674,-2.2628,-2.2568,-2.2514,-2.244,-2.238,-2.2256,-2.223,-2.216,-2.2167,-2.2085,-2.2157,-2.2156,-2.2163,-2.2166,-2.2158,-2.207,-2.2067,-2.2065,-2.2064,0,-2.278,-2.2779,-2.2718,-2.2654,-2.2604,-2.2553,-2.2506,-2.2469,-2.2463,-2.241,-2.2333,-2.2287,-2.2195,-2.212,-2.2051,-2.2023,-2.204,-2.2042,-2.202,-2.2015,-2.2021,-2.2015,-2.2265,-2.2047,-2.2049,-2.205,-2.2051,-2.2051,-2.2642,-2.2582,-2.2539,-2.247,-2.2435,-2.239,-2.2332,-2.2312,-2.2248,-2.2175,-2.2179,-2.2093,-2.2045,-2.1955,-2.1923,-2.1854,-2.1881,-2.1849,-2.1841,-2.1832,-2.1824,-2.2035,-2.1842,-2.1843,-2.1843,-2.1843,-2.1844,0,-2.245,-2.2424,-2.2361,-2.2295,-2.224,-2.2266,-2.2214,-2.2166,-2.2091,-2.2047,-2.1988,-2.1899,-2.1826,-2.1796,-2.1724,-2.1675,-2.1682,-2.1656,-2.1658,-2.1651,-2.1806,-2.1831,-2.1652,-2.1652,-2.1652,-2.1652,-2.1652,-2.1652,-2.2343,-2.2243,-2.2237,-2.212,-2.2095,-2.2012,-2.1981,-2.1939,-2.1904,-2.1803,-2.1744,-2.1726,-2.1686,-2.1612,-2.1546,-2.1539,-2.1511,-2.1481,-2.1477,-2.1621,-2.164,-2.1659,-2.1682,-2.1475,-2.1475,-2.1328,-2.1326,-2.1325]}]]